[[{"header":{"parameterUnit":"m.s-1","parameterCategory":1,"la1":30.2991,"la2":30.254,"lo1":-89.0895,"lo2":-89.0444,"dy":0.0017,"dx":0.0017,"nx":28,"ny":28,"refTime":"2023-09-02T03:00:00:Z","depth":0,"parameterNumber":2,"parameterNumberName":"U-component_of_WINDS"},"data":[0,0,0,0,0,0,0,0,0,0,0,0,0,0,0,0,0,0,0,0,0,0,0,0,0,0,0,0,0,0,0,0,0,0,0,0,0,0,0,0,0,0,0,0,0,0,0,0,0,0,0,0,0,0,0,0,0,0,-1.8263,-1.8264,0,-1.8292,-1.8293,-1.8293,-1.8338,-1.8338,-1.8339,-1.834,-1.8367,-1.8367,-1.8367,0,0,0,0,0,0,0,0,0,0,0,0,0,-1.8244,-1.8245,-1.8263,-1.8264,-1.8264,-1.8292,-1.8293,-1.8293,-1.8338,-1.8339,-1.834,-1.834,-1.8367,-1.8367,-1.8367,0,0,0,0,0,0,0,0,0,0,0,0,0,-1.8261,-1.8245,-1.8263,-1.829,-1.8292,-1.8292,-1.8293,-1.8293,-1.8337,-1.8339,-1.834,-1.8341,-1.8367,-1.8367,-1.8367,-1.8342,0,0,-1.8367,-1.8367,0,0,0,0,0,0,0,0,-1.826,-1.8261,-1.8286,-1.8288,-1.8291,-1.8313,-1.8296,-1.8309,-1.8337,-1.832,-1.834,-1.8342,-1.8348,-1.8349,-1.8352,-1.8343,-1.8345,-1.8367,-1.8367,-1.8367,-1.8367,0,0,0,0,0,0,0,-1.8259,-1.826,-1.8275,-1.8286,-1.8289,-1.8299,-1.8303,-1.8299,-1.8327,-1.8322,-1.8325,-1.8328,-1.8349,-1.8352,-1.8353,-1.8345,-1.8367,-1.8367,-1.8367,-1.8367,-1.8316,-1.8314,0,0,0,0,0,0,-1.8254,-1.8259,-1.8274,-1.8276,-1.8278,-1.8299,-1.8303,-1.8304,-1.8327,-1.8332,-1.8327,-1.833,-1.8351,-1.8353,-1.8354,-1.8324,-1.8367,-1.8367,-1.8367,-1.8317,-1.8315,-1.8314,0,0,0,0,0,0,-1.8253,-1.8255,-1.8273,-1.8268,-1.8271,-1.8298,-1.8299,-1.8304,-1.8307,-1.8331,-1.8336,-1.8324,-1.8352,-1.8354,-1.8345,-1.8326,-1.8367,-1.8366,-1.8319,-1.8316,-1.8315,-1.8266,0,0,0,0,0,0,-1.8253,-1.8254,-1.8246,-1.8268,-1.8272,-1.8263,-1.8298,-1.8304,-1.8307,-1.8311,-1.833,-1.8334,-1.8354,-1.8344,-1.8344,-1.8327,-1.8366,-1.832,-1.8318,-1.8315,-1.827,-1.8263,-1.8257,0,0,0,0,0,-1.8252,-1.8231,-1.8245,-1.8247,-1.8261,-1.8262,-1.8264,-1.8288,-1.8305,-1.8296,-1.8312,-1.8333,-1.8329,-1.8343,-1.8344,-1.8325,-1.8321,-1.8318,-1.8315,-1.8272,-1.8264,-1.8257,0,0,0,0,0,0,-1.8205,-1.8234,-1.825,-1.8236,-1.8246,-1.827,-1.8259,-1.8279,-1.8283,-1.8287,-1.8316,-1.8319,-1.8305,-1.8315,-1.833,-1.8302,-1.8328,-1.8325,-1.8295,-1.8288,-1.8282,-1.8278,-1.8366,0,0,0,0,0,-1.8193,-1.8192,-1.8218,-1.8202,-1.8207,-1.8232,-1.8233,-1.8251,-1.8262,-1.8266,-1.8281,-1.829,-1.8291,-1.8291,-1.8293,-1.8273,-1.8276,-1.826,-1.8254,-1.8249,-1.8245,-1.8233,-1.8225,-1.8304,-1.8304,-1.8304,0,0,-1.8168,-1.8184,-1.8181,-1.8193,-1.8203,-1.82,-1.8235,-1.8231,-1.8228,-1.8265,-1.8256,-1.8268,-1.828,-1.8265,-1.8258,-1.8272,-1.8224,-1.8245,-1.8241,-1.824,-1.8229,-1.8221,-1.8214,-1.8302,-1.8303,-1.8303,0,0,-1.812,-1.8133,-1.8121,-1.8131,-1.8146,-1.8163,-1.816,-1.818,-1.8189,-1.8181,-1.8209,-1.8206,-1.8207,-1.8214,-1.8218,-1.8174,-1.8193,-1.8174,-1.814,-1.8128,-1.8121,-1.8116,-1.8097,-1.809,-1.817,-1.817,-1.817,0,-1.8086,-1.8084,-1.8112,-1.8105,-1.8109,-1.8144,-1.8131,-1.8139,-1.8153,-1.8154,-1.817,-1.8172,-1.8183,-1.8168,-1.8157,-1.816,-1.8156,-1.817,-1.812,-1.8115,-1.811,-1.8092,-1.8086,-1.8168,-1.8168,-1.8168,-1.8168,0,-1.804,-1.8038,-1.8026,-1.804,-1.8043,-1.8033,-1.8059,-1.8058,-1.8076,-1.8091,-1.8081,-1.8096,-1.8101,-1.81,-1.8117,-1.8087,-1.8095,-1.8115,-1.8142,-1.8099,-1.8083,-1.8077,-1.8164,-1.8165,-1.8166,-1.8166,0,0,-1.7961,-1.7991,-1.7986,-1.7991,-1.8011,-1.8009,-1.8001,-1.8007,-1.8004,-1.8014,-1.8006,-1.8007,-1.8025,-1.803,-1.8048,-1.8038,-1.7998,-1.8059,-1.806,-1.8045,-1.7963,-1.7944,-1.7936,-1.8013,-1.8012,-1.8011,-1.7961,0,-1.7914,-1.7901,-1.7927,-1.7908,-1.7904,-1.7939,-1.7931,-1.7942,-1.7956,-1.7955,-1.7971,-1.7969,-1.7996,-1.7998,-1.799,-1.8005,-1.7981,-1.8009,-1.8003,-1.8002,-1.7995,-1.7928,-1.7909,-1.7861,-1.7955,-1.7954,-1.7953,0,-1.7857,-1.7864,-1.7844,-1.7864,-1.7864,-1.7857,-1.7863,-1.7863,-1.7875,-1.7886,-1.7891,-1.7913,-1.7905,-1.7934,-1.7922,-1.794,-1.7939,-1.7946,-1.7945,-1.7942,-1.7972,-1.792,-1.7847,-1.7838,-1.7944,-1.7945,-1.7945,0,-1.7797,-1.7801,-1.779,-1.7794,-1.7818,-1.7812,-1.7821,-1.7835,-1.7837,-1.7843,-1.7843,-1.7848,-1.785,-1.7853,-1.7875,-1.7894,-1.7859,-1.789,-1.7866,-1.7865,-1.7854,-1.7853,-1.7775,-1.786,-1.786,-1.786,-1.786,0,-1.7739,-1.7725,-1.7762,-1.7755,-1.7739,-1.777,-1.7753,-1.7766,-1.7779,-1.7773,-1.7804,-1.7798,-1.783,-1.7827,-1.7845,-1.7831,-1.7832,-1.7839,-1.7843,-1.7834,-1.7832,-1.7831,-1.7833,-1.7858,-1.7858,-1.7859,-1.7859,0,-1.7667,-1.7692,-1.7681,-1.7705,-1.7711,-1.7698,-1.7719,-1.7712,-1.7729,-1.7722,-1.7722,-1.7748,-1.7746,-1.777,-1.7773,-1.7785,-1.7761,-1.7773,-1.7756,-1.7758,-1.7731,-1.7732,-1.7646,-1.7635,-1.773,-1.7729,-1.7729,0,-1.7627,-1.7617,-1.764,-1.7639,-1.7647,-1.7645,-1.7647,-1.7677,-1.7677,-1.7691,-1.7681,-1.7683,-1.7685,-1.768,-1.7699,-1.7701,-1.7711,-1.7681,-1.7711,-1.7701,-1.7706,-1.7704,-1.7702,-1.7673,-1.7671,-1.767,-1.767,0,-1.7552,-1.7565,-1.7566,-1.7572,-1.7573,-1.7579,-1.7587,-1.7584,-1.7617,-1.7615,-1.7614,-1.7616,-1.7619,-1.7618,-1.7624,-1.7633,-1.7655,-1.7661,-1.7654,-1.7643,-1.7632,-1.7633,-1.7734,-1.7661,-1.7662,-1.7663,-1.7663,-1.7664,-1.7492,-1.7484,-1.7498,-1.7499,-1.7508,-1.7515,-1.7509,-1.7526,-1.7526,-1.7531,-1.7549,-1.7544,-1.7557,-1.7567,-1.7574,-1.757,-1.7584,-1.7576,-1.7573,-1.7569,-1.7563,-1.7636,-1.7571,-1.7572,-1.7572,-1.7572,-1.7572,0,-1.7415,-1.7427,-1.7427,-1.7437,-1.7437,-1.7461,-1.7471,-1.7468,-1.7464,-1.7475,-1.7476,-1.7474,-1.7474,-1.7493,-1.7495,-1.7488,-1.7498,-1.7487,-1.7486,-1.7487,-1.7551,-1.7555,-1.7479,-1.7479,-1.7479,-1.7479,-1.7479,-1.7479,-1.7374,-1.7361,-1.7376,-1.7367,-1.7379,-1.7374,-1.7378,-1.7383,-1.7391,-1.7388,-1.7388,-1.7402,-1.7415,-1.7418,-1.7419,-1.7425,-1.7422,-1.7406,-1.7415,-1.7474,-1.7483,-1.7491,-1.7494,-1.7407,-1.7407,-1.735,-1.735,-1.7349]},{"header":{"parameterUnit":"m.s-1","parameterCategory":1,"la1":30.2991,"la2":30.254,"lo1":-89.0895,"lo2":-89.0444,"dy":0.0017,"dx":0.0017,"nx":28,"ny":28,"refTime":"2023-09-02T03:00:00:Z","depth":0,"parameterNumber":3,"parameterNumberName":"V-component_of_WINDS"},"data":[0,0,0,0,0,0,0,0,0,0,0,0,0,0,0,0,0,0,0,0,0,0,0,0,0,0,0,0,0,0,0,0,0,0,0,0,0,0,0,0,0,0,0,0,0,0,0,0,0,0,0,0,0,0,0,0,0,0,0.931,0.9309,0,0.9226,0.9225,0.9224,0.9186,0.9187,0.9187,0.9187,0.9095,0.9093,0.909,0,0,0,0,0,0,0,0,0,0,0,0,0,0.9432,0.943,0.931,0.9309,0.9308,0.9226,0.9225,0.9224,0.9186,0.9187,0.9187,0.9187,0.9096,0.9093,0.909,0,0,0,0,0,0,0,0,0,0,0,0,0,0.9367,0.9429,0.931,0.9279,0.9276,0.9227,0.9225,0.9224,0.9186,0.9187,0.9187,0.9187,0.9097,0.9093,0.909,0.9063,0,0,0.9078,0.9076,0,0,0,0,0,0,0,0,0.937,0.9362,0.9285,0.9281,0.9277,0.9217,0.9235,0.917,0.9186,0.922,0.9187,0.9187,0.9135,0.9128,0.9112,0.9059,0.9055,0.9078,0.9075,0.9074,0.9073,0,0,0,0,0,0,0,0.9375,0.9366,0.9277,0.9284,0.9279,0.9268,0.9259,0.9222,0.9178,0.9217,0.9214,0.9205,0.9133,0.9116,0.911,0.9053,0.9078,0.9074,0.9072,0.9071,0.8974,0.8974,0,0,0,0,0,0,0.9385,0.937,0.9279,0.9274,0.9325,0.9266,0.9256,0.9236,0.9178,0.9169,0.9205,0.9204,0.9122,0.9114,0.9106,0.9071,0.9074,0.907,0.9068,0.8974,0.8974,0.8974,0,0,0,0,0,0,0.9388,0.9378,0.9283,0.9321,0.9308,0.9264,0.9242,0.9234,0.9217,0.9169,0.916,0.9196,0.9122,0.9112,0.9075,0.9068,0.9068,0.9065,0.8975,0.8974,0.8974,0.9002,0,0,0,0,0,0,0.9392,0.9379,0.9369,0.9321,0.9306,0.9254,0.9242,0.9233,0.9211,0.9209,0.9158,0.915,0.9121,0.908,0.9071,0.9062,0.9062,0.8975,0.8975,0.8974,0.9001,0.9002,0.9003,0,0,0,0,0,0.9396,0.9379,0.9369,0.9358,0.9294,0.9254,0.9245,0.9214,0.9211,0.92,0.917,0.9151,0.907,0.9077,0.9066,0.9056,0.8975,0.8975,0.8974,0.9001,0.9002,0.9003,0,0,0,0,0,0,0.9425,0.9372,0.936,0.9328,0.9296,0.9247,0.9233,0.9217,0.9183,0.9182,0.9144,0.9132,0.9099,0.9074,0.9082,0.9027,0.9021,0.9018,0.9045,0.9046,0.9047,0.9053,0.9059,0,0,0,0,0,0.9428,0.9402,0.9356,0.9331,0.9316,0.9278,0.9259,0.9238,0.9203,0.9188,0.9155,0.912,0.9086,0.9065,0.9031,0.8998,0.8985,0.8985,0.8986,0.8988,0.8985,0.8965,0.8965,0.8972,0.8972,0.8972,0,0,0.9433,0.9401,0.9386,0.9337,0.9309,0.9281,0.9266,0.9237,0.9215,0.9183,0.9147,0.9121,0.9079,0.9044,0.9026,0.9022,0.8981,0.8987,0.8988,0.8985,0.8965,0.8964,0.8964,0.8971,0.8971,0.8971,0,0,0.9428,0.9402,0.9378,0.9352,0.9312,0.9287,0.9281,0.9236,0.9218,0.9181,0.9157,0.913,0.9073,0.9044,0.9022,0.9008,0.8989,0.8998,0.9003,0.8984,0.8983,0.8983,0.8977,0.8976,0.8996,0.8996,0.8996,0,0.9439,0.9397,0.9368,0.9341,0.9319,0.9291,0.9267,0.9242,0.9192,0.9177,0.9174,0.9103,0.9072,0.903,0.9027,0.901,0.9001,0.9003,0.8986,0.8985,0.8984,0.8978,0.8976,0.8997,0.8997,0.8997,0.8997,0,0.9412,0.9384,0.937,0.9325,0.9302,0.9276,0.9241,0.9221,0.9203,0.9178,0.914,0.9104,0.9062,0.9051,0.9032,0.9006,0.9004,0.8994,0.8986,0.8985,0.8979,0.8977,0.8999,0.8998,0.8998,0.8998,0,0,0.9421,0.9363,0.9358,0.9337,0.9292,0.9268,0.9241,0.9203,0.9186,0.9153,0.9128,0.9082,0.9072,0.9047,0.9025,0.9009,0.9,0.9,0.8998,0.9001,0.8968,0.8976,0.8974,0.8988,0.8987,0.8987,0.8972,0,0.941,0.9362,0.9335,0.9297,0.927,0.9244,0.922,0.9189,0.9165,0.9137,0.9109,0.9077,0.9067,0.9052,0.9035,0.9004,0.8992,0.9005,0.8963,0.8962,0.8974,0.8971,0.8979,0.8966,0.8969,0.8969,0.8968,0,0.9389,0.9359,0.932,0.9278,0.9266,0.9245,0.9208,0.9183,0.9146,0.913,0.9103,0.9081,0.905,0.9046,0.9002,0.9012,0.8993,0.8975,0.8974,0.8968,0.8964,0.8964,0.8961,0.8959,0.8964,0.8965,0.8965,0,0.94,0.9349,0.9319,0.9302,0.9253,0.9239,0.9217,0.9182,0.9161,0.9128,0.9114,0.9077,0.9057,0.9029,0.8997,0.8997,0.8956,0.895,0.894,0.8941,0.8932,0.8933,0.8925,0.8921,0.8921,0.8921,0.8921,0,0.9389,0.9365,0.9323,0.9304,0.9277,0.9246,0.922,0.9196,0.9164,0.914,0.9114,0.9091,0.9051,0.9023,0.8998,0.8965,0.8956,0.8941,0.8934,0.8943,0.8945,0.8929,0.8929,0.8921,0.8921,0.8921,0.8921,0,0.9395,0.9366,0.9332,0.9289,0.9277,0.9259,0.9222,0.9202,0.9177,0.9146,0.9137,0.9098,0.9063,0.9029,0.8982,0.8965,0.8933,0.8924,0.8945,0.8942,0.8934,0.8935,0.8916,0.8911,0.8911,0.8911,0.8912,0,0.939,0.9371,0.9328,0.931,0.929,0.9262,0.9242,0.921,0.9189,0.9148,0.9133,0.9097,0.9066,0.9012,0.8978,0.8942,0.8932,0.8928,0.8926,0.8936,0.8931,0.8933,0.893,0.8928,0.8929,0.8929,0.8929,0,0.9383,0.937,0.9342,0.931,0.9286,0.9258,0.9229,0.9216,0.9179,0.9157,0.9123,0.9099,0.9053,0.9017,0.8977,0.8953,0.8934,0.893,0.8926,0.8934,0.8947,0.8939,0.8947,0.893,0.893,0.893,0.893,0.893,0.9383,0.9366,0.9333,0.9302,0.9278,0.9252,0.9232,0.9206,0.9177,0.9138,0.9121,0.9086,0.9051,0.8996,0.8972,0.8944,0.8939,0.8933,0.8931,0.893,0.8932,0.8953,0.8936,0.8936,0.8936,0.8936,0.8936,0,0.9374,0.9352,0.9325,0.9287,0.9263,0.9251,0.9218,0.9199,0.9169,0.9138,0.911,0.907,0.9036,0.9,0.8963,0.8947,0.8938,0.8939,0.8939,0.8934,0.8938,0.8945,0.8947,0.8947,0.8947,0.8947,0.8947,0.8947,0.9367,0.9338,0.9321,0.9279,0.9256,0.9224,0.9207,0.9182,0.9158,0.9116,0.9088,0.9066,0.9032,0.8993,0.8961,0.8951,0.8938,0.8942,0.8929,0.8934,0.8933,0.8933,0.8939,0.8939,0.8939,0.8927,0.8927,0.8927]}]]